Voltar ao catálogo

H-2A R/B

AtivoHEO
NORAD 42739·ROCKET BODY·🇯🇵 Japan

Lançado Jun 1, 2017 de Tanegashima Space Center

Loading…

Próximas Passagens (próximas 24 horas)

TLE

AtualizadoSource: Space-Track

Época: Sep 14, 2026, 16:54 UTC

1 42739U 17028B   26257.70447890  .00003052  00000-0  79521-3 0  9991
2 42739  31.3277 135.7616 7165785 271.8557  14.9766  2.42685481 79653

Acompanhe H-2A R/B em tempo real com AllMySat

Download on the App Store